• Join FlightAware (Why Join?)
  • Login
  • US Flag 
09:16AM EDT


 

Airport Tracker/Info


-or-


 

Live Flight TrackerFlight Track Log ✈ TAM3827 ✈ 07-Oct-2013 ✈ SBBR / BSB - SBGL / GIG

Flight Track Log - Related Links

Times and Time Zones

All times are in EDT time to prevent confusion due to time zone crossing. See the TAM3827 flight status page for this flight to view local times or setup timezone preferences in your user account.

Time Position Orientation Groundspeed Altitude Reporting Facility
EDT Latitude Longitude Course Direction KTS MPH feet Rate Location/Type
12:54PM -15.8640 -47.9270 266° West 175 201 3,700  Level FlightAware
12:55PM -15.8640 -47.9440 270° West 178 205 4,600 2,340 Climbing FlightAware
12:55PM -15.8660 -47.9680 265° West 188 216 5,600 1,980 Climbing FlightAware
12:55PM -15.8670 -47.9850 266° West 193 222 6,100 1,140 Climbing FlightAware
12:56PM -15.8680 -48.0040 267° West 210 242 6,300 660 Climbing FlightAware
12:56PM -15.8700 -48.0300 265° West 247 284 6,600 1,620 Climbing FlightAware
12:56PM -15.8720 -48.0600 266° West 257 296 7,600 2,760 Climbing FlightAware
12:57PM -15.8730 -48.0850 268° West 249 287 8,700 3,000 Climbing FlightAware
12:57PM -15.8750 -48.1080 265° West 251 289 9,600 2,460 Climbing FlightAware
12:57PM -15.8790 -48.1180 247° West 258 297 9,900 1,860 Climbing FlightAware
12:58PM -15.8910 -48.1300 224° Southwest 267 307 10,300 1,800 Climbing FlightAware
12:58PM -15.9020 -48.1360 208° Southwest 269 310 10,600 1,560 Climbing FlightAware
12:58PM -15.9210 -48.1360 180° South 276 318 11,000 1,680 Climbing FlightAware
12:58PM -15.9340 -48.1310 160° South 281 323 11,300 1,680 Climbing FlightAware
12:58PM -15.9450 -48.1240 149° Southeast 286 329 11,600 1,020 Climbing FlightAware
12:59PM -15.9770 -48.0960 140° Southeast 313 360 12,000 600 Climbing FlightAware
12:59PM -15.9830 -48.0820 114° Southeast 313 360 12,000  Level FlightAware
01:00PM -16.0030 -48.0160 108° East 311 358 12,000  Level FlightAware
01:00PM -16.0180 -47.9740 110° East 307 353 12,000  Level FlightAware
01:01PM -16.0370 -47.9180 109° East 311 358 12,000  Level FlightAware
01:01PM -16.0520 -47.8680 107° East 317 365 12,000  Level FlightAware
01:02PM -16.0690 -47.8180 109° East 312 359 12,000  Level FlightAware
01:03PM -16.0860 -47.7700 110° East 310 357 12,000  Level FlightAware
01:03PM -16.1000 -47.7260 108° East 311 358 12,000  Level FlightAware
01:04PM -16.1180 -47.6670 108° East 314 361 12,000  Level FlightAware
01:04PM -16.1310 -47.6420 118° Southeast 318 366 12,000  Level FlightAware
01:04PM -16.1360 -47.6360 131° Southeast 318 366 12,000  Level FlightAware
01:05PM -16.1810 -47.6030 145° Southeast 313 360 12,000 300 Level FlightAware
01:05PM -16.2170 -47.5750 143° Southeast 313 360 12,400 1,740 Climbing FlightAware
01:06PM -16.2590 -47.5440 145° Southeast 317 365 13,900 1,860 Climbing FlightAware
01:07PM -16.3270 -47.4920 144° Southeast 351 404 15,200 1,560 Climbing FlightAware
01:07PM -16.3740 -47.4570 144° Southeast 365 420 16,300 1,920 Climbing FlightAware
01:08PM -16.4300 -47.4150 144° Southeast 372 428 17,600 1,320 Climbing FlightAware
01:09PM -16.4720 -47.3700 134° Southeast 382 440 18,000 300 Climbing FlightAware
01:09PM -16.5120 -47.3090 124° Southeast 387 445 18,000  Level FlightAware
01:10PM -16.5610 -47.2400 127° Southeast 383 441 18,000  Level FlightAware
01:10PM -16.5750 -47.2380 172° South 377 434 18,000  Level FlightAware
01:11PM -16.6320 -47.1970 145° Southeast 377 434 18,000  Level FlightAware
01:12PM -16.6730 -47.1670 145° Southeast 377 434 18,000  Level FlightAware
01:12PM -16.7170 -47.1350 145° Southeast 377 434 18,000  Level FlightAware
01:13PM -16.7580 -47.1040 144° Southeast 377 434 18,000  Level FlightAware
01:13PM -16.8020 -47.0720 145° Southeast 377 434 18,000  Level FlightAware
01:14PM -16.8450 -47.0400 145° Southeast 377 434 18,000 1,200 Level FlightAware
01:17PM -17.0625 -46.9071 150° Southeast  Level Estimated
01:18PM -17.1513 -46.8527 150° Southeast  Level Estimated
01:19PM -17.2400 -46.7984 150° Southeast  Level Estimated
01:20PM -17.3287 -46.7439 150° Southeast  Level Estimated
01:21PM -17.4174 -46.6894 150° Southeast  Level Estimated
01:22PM -17.5061 -46.6348 150° Southeast  Level Estimated
01:23PM -17.5948 -46.5802 150° Southeast  Level Estimated
01:23PM -17.3560 -46.0290 150° Southeast 462 532 29,800  Level FlightAware
01:23PM -17.3960 -46.0010 146° Southeast 457 526 30,000 300 Climbing FlightAware
01:24PM -17.4210 -45.9920 161° South 455 524 30,000 300 Level FlightAware
01:24PM -17.4940 -45.9700 164° South 466 536 30,300 780 Climbing FlightAware
01:25PM -17.5830 -45.9420 163° South 469 540 31,000 960 Climbing FlightAware
01:25PM -17.6420 -45.9230 163° South 473 544 31,500 900 Climbing FlightAware
01:26PM -17.7320 -45.8830 157° South 477 549 32,200 960 Climbing FlightAware
01:27PM -17.7980 -45.8540 157° South 476 548 32,700 1,020 Climbing FlightAware
01:27PM -17.8800 -45.8180 157° South 474 545 33,400 960 Climbing FlightAware
01:28PM -17.9490 -45.7860 156° South 477 549 33,900 1,080 Climbing FlightAware
01:29PM -18.0230 -45.7530 157° South 472 543 34,700 960 Climbing FlightAware
01:29PM -18.0830 -45.7270 158° South 472 543 35,000 240 Climbing FlightAware
01:30PM -18.1520 -45.6950 156° South 466 536 35,000  Level FlightAware
01:30PM -18.2320 -45.6600 157° South 472 543 35,000  Level FlightAware
01:31PM -18.2950 -45.6320 157° South 480 552 35,000  Level FlightAware
01:31PM -18.3650 -45.6010 157° South 483 556 35,000  Level FlightAware
01:32PM -18.4490 -45.5630 157° South 483 556 35,000  Level FlightAware
01:33PM -18.5190 -45.5320 157° South 483 556 35,000  Level FlightAware
01:33PM -18.6010 -45.4950 157° South 485 558 35,000  Level FlightAware
01:34PM -18.6740 -45.4630 157° South 486 559 35,000  Level FlightAware
01:34PM -18.7450 -45.4300 156° South 487 560 35,000  Level FlightAware
01:35PM -18.8240 -45.3950 157° South 489 563 35,000  Level FlightAware
01:36PM -18.8970 -45.3620 157° South 491 565 35,000  Level FlightAware
01:36PM -18.9630 -45.3320 157° South 491 565 35,000  Level FlightAware
01:37PM -19.0270 -45.3030 157° South 492 566 35,000  Level FlightAware
01:37PM -19.1210 -45.2610 157° South 492 566 35,000  Level FlightAware
01:38PM -19.2180 -45.2170 157° South 493 567 35,000  Level FlightAware
01:39PM -19.2830 -45.1870 156° South 494 568 35,000  Level FlightAware
01:39PM -19.3620 -45.1520 157° South 494 568 35,000  Level FlightAware
01:40PM -19.4420 -45.1150 156° South 495 570 35,000  Level FlightAware
01:41PM -19.5140 -45.0830 157° South 496 571 35,000  Level FlightAware
01:41PM -19.5910 -45.0480 157° South 497 572 35,000  Level FlightAware
01:42PM -19.6530 -45.0230 159° South 458 527 35,000  Level FlightAware
01:42PM -19.6920 -45.0170 172° South 427 491 35,000  Level FlightAware
01:42PM -19.7480 -45.0280 190° South 383 441 35,000  Level FlightAware
01:43PM -19.8040 -45.0520 202° Southwest 369 425 35,000  Level FlightAware
01:44PM -19.8550 -45.0750 203° Southwest 374 430 35,000  Level FlightAware
01:44PM -19.9130 -45.1010 203° Southwest 375 432 35,000  Level FlightAware
01:45PM -19.9610 -45.1220 202° Southwest 380 437 35,000  Level FlightAware
01:45PM -19.9900 -45.1300 195° South 396 456 35,000  Level FlightAware
01:45PM -20.0380 -45.1260 176° South 428 493 35,000  Level FlightAware
01:46PM -20.0660 -45.1150 160° South 445 512 35,000  Level FlightAware
01:46PM -20.1270 -45.0710 146° Southeast 466 536 35,000  Level FlightAware
01:47PM -20.1990 -45.0180 145° Southeast 481 554 35,000  Level FlightAware
01:47PM -20.2560 -44.9770 146° Southeast 494 568 35,000  Level FlightAware
01:48PM -20.3210 -44.9290 145° Southeast 503 579 35,000  Level FlightAware
01:49PM -20.3900 -44.8780 145° Southeast 501 577 35,000  Level FlightAware
01:49PM -20.4580 -44.8290 146° Southeast 497 572 35,000  Level FlightAware
01:50PM -20.5340 -44.7730 145° Southeast 494 568 35,000  Level FlightAware
01:50PM -20.5900 -44.7320 146° Southeast 493 567 35,000  Level FlightAware
01:51PM -20.6640 -44.6770 145° Southeast 492 566 35,000  Level FlightAware
01:52PM -20.7320 -44.6280 146° Southeast 491 565 35,000  Level FlightAware
01:52PM -20.7850 -44.5890 145° Southeast 491 565 35,000  Level FlightAware
01:53PM -20.8550 -44.5410 147° Southeast 488 562 35,000  Level FlightAware
01:53PM -20.9220 -44.4980 149° Southeast 488 562 35,000  Level FlightAware
01:54PM -20.9910 -44.4530 149° Southeast 489 563 35,000 -720 Level FlightAware
01:54PM -21.0580 -44.4090 148° Southeast 498 573 34,200 -1,980 Descending FlightAware
01:55PM -21.1300 -44.3610 148° Southeast 493 567 32,600 -2,220 Descending FlightAware
01:56PM -21.2010 -44.3140 148° Southeast 483 556 31,500 -1,860 Descending FlightAware
01:56PM -21.2600 -44.2750 148° Southeast 473 544 30,600 -1,860 Descending FlightAware
01:57PM -21.3250 -44.2320 148° Southeast 460 529 29,500 -1,800 Descending FlightAware
01:57PM -21.3870 -44.1930 150° Southeast 449 517 28,500 -1,800 Descending FlightAware
01:58PM -21.4590 -44.1460 149° Southeast 442 509 27,300 -1,740 Descending FlightAware
01:59PM -21.5470 -44.0900 149° Southeast 433 498 25,800 -1,740 Descending FlightAware
01:59PM -21.6040 -44.0530 149° Southeast 428 493 24,800 -1,800 Descending FlightAware
02:00PM -21.6570 -44.0180 148° Southeast 423 487 23,900 -1,740 Descending FlightAware
02:01PM -21.7250 -43.9740 149° Southeast 416 479 22,700 -1,740 Descending FlightAware
02:01PM -21.7930 -43.9300 149° Southeast 409 471 21,500 -1,740 Descending FlightAware
02:02PM -21.8510 -43.8930 149° Southeast 401 461 20,500 -1,740 Descending FlightAware
02:03PM -21.9080 -43.8550 148° Southeast 395 455 19,400 -1,800 Descending FlightAware
02:03PM -21.9680 -43.8170 150° Southeast 388 447 18,300 -1,740 Descending FlightAware
02:04PM -22.0160 -43.7850 148° Southeast 382 440 17,400 -1,620 Descending FlightAware
02:04PM -22.0780 -43.7450 149° Southeast 373 429 16,400 -1,560 Descending FlightAware
02:05PM -22.1150 -43.7210 149° Southeast 363 418 15,700 -1,800 Descending FlightAware
02:05PM -22.1680 -43.6860 149° Southeast 355 409 14,600 -1,380 Descending FlightAware
02:06PM -22.2240 -43.6490 149° Southeast 355 409 14,000 -900 Descending FlightAware
02:07PM -22.2610 -43.6250 149° Southeast 356 410 13,500 -1,440 Descending FlightAware
02:07PM -22.3080 -43.5940 149° Southeast 355 409 12,400 -1,500 Descending FlightAware
02:08PM -22.3490 -43.5660 148° Southeast 343 395 11,900 -1,020 Descending FlightAware
02:08PM -22.3990 -43.5270 144° Southeast 328 377 11,200 -840 Descending FlightAware
02:09PM -22.4280 -43.4910 131° Southeast 320 368 10,900 -720 Descending FlightAware
02:10PM -22.4610 -43.4490 130° Southeast 296 341 10,500 -780 Descending FlightAware
02:10PM -22.4890 -43.4190 135° Southeast 280 322 10,100 -780 Descending FlightAware
02:10PM -22.5020 -43.4120 154° Southeast 273 314 10,000 -360 Descending FlightAware
02:10PM -22.5090 -43.4100 165° South 266 306 10,000  Level FlightAware
02:11PM -22.5360 -43.4170 193° South 249 287 10,000  Level FlightAware
02:11PM -22.5420 -43.4220 218° Southwest 246 283 10,000  Level FlightAware
02:11PM -22.5460 -43.4280 234° Southwest 242 278 10,000  Level FlightAware
02:12PM -22.5470 -43.4810 269° West 238 274 10,000  Level FlightAware
02:12PM -22.5320 -43.5150 296° West 237 273 10,000  Level FlightAware
02:12PM -22.5220 -43.5380 295° West 238 274 10,000  Level FlightAware
02:13PM -22.5140 -43.5540 298° West 230 265 10,000  Level FlightAware
02:13PM -22.5030 -43.5660 315° West 227 261 10,000  Level FlightAware
02:13PM -22.4940 -43.5700 338° Northwest 231 266 10,000  Level FlightAware
02:13PM -22.4760 -43.5730 351° North 239 275 10,000  Level FlightAware
02:14PM -22.4630 -43.5710 North 245 282 10,000  Level FlightAware
02:14PM -22.4550 -43.5670 25° Northeast 249 287 10,000  Level FlightAware
02:14PM -22.4380 -43.5410 55° Northeast 262 302 10,000  Level FlightAware
02:15PM -22.4480 -43.4960 104° East 263 303 10,000 -120 Level FlightAware
02:15PM -22.4580 -43.4690 112° Southeast 264 304 9,900 -360 Descending FlightAware
02:16PM -22.4650 -43.4470 109° East 261 300 9,700 -600 Descending FlightAware
02:16PM -22.4770 -43.4190 115° Southeast 260 299 9,500 -480 Descending FlightAware
02:16PM -22.4850 -43.4000 115° Southeast 260 299 9,400 -480 Descending FlightAware
02:17PM -22.4970 -43.3710 114° Southeast 260 299 9,200 -480 Descending FlightAware
02:17PM -22.5060 -43.3520 117° Southeast 259 298 9,100 -420 Descending FlightAware
02:17PM -22.5140 -43.3320 113° Southeast 257 296 9,000 -180 Descending FlightAware
02:18PM -22.5250 -43.3050 114° Southeast 258 297 9,000  Level FlightAware
02:18PM -22.5340 -43.2850 116° Southeast 257 296 9,000  Level FlightAware
02:18PM -22.5460 -43.2570 115° Southeast 258 297 9,000  Level FlightAware
02:19PM -22.5530 -43.2380 112° Southeast 258 297 9,000  Level FlightAware
02:19PM -22.5620 -43.2200 118° Southeast 256 295 9,000  Level FlightAware
02:19PM -22.5730 -43.1930 114° Southeast 253 291 9,000  Level FlightAware
02:20PM -22.5860 -43.1630 115° Southeast 251 289 9,000 -300 Level FlightAware
02:20PM -22.5970 -43.1350 113° Southeast 248 285 8,800 -420 Descending FlightAware
02:20PM -22.6080 -43.1100 115° Southeast 246 283 8,700 -180 Descending FlightAware
02:21PM -22.6160 -43.0910 115° Southeast 246 283 8,700 -180 Level FlightAware
02:21PM -22.6280 -43.0620 114° Southeast 247 284 8,600 -480 Descending FlightAware
02:22PM -22.6440 -43.0240 115° Southeast 242 278 8,300 -540 Descending FlightAware
02:22PM -22.6550 -43.0000 116° Southeast 240 276 8,100 -540 Descending FlightAware
02:22PM -22.6620 -42.9720 105° East 235 270 7,900 -600 Descending FlightAware
02:23PM -22.6500 -42.9370 70° East 236 272 7,700 -240 Descending FlightAware
02:23PM -22.6330 -42.8930 67° East 236 272 7,700  Level FlightAware
02:24PM -22.6250 -42.8720 68° East 236 272 7,700  Level FlightAware
02:24PM -22.6230 -42.8590 81° East 236 272 7,700  Level FlightAware
02:24PM -22.6230 -42.8550 90° East 236 272 7,700 -720 Level FlightAware
02:25PM -22.6470 -42.8210 127° Southeast 226 260 7,200 -1,560 Descending FlightAware
02:25PM -22.6550 -42.8180 161° South 225 259 6,900 -1,620 Descending FlightAware
02:25PM -22.6620 -42.8180 180° South 224 258 6,800 -1,080 Descending FlightAware
02:25PM -22.6770 -42.8260 206° Southwest 215 247 6,500 -900 Descending FlightAware
02:25PM -22.6880 -42.8400 230° Southwest 202 232 6,300 -780 Descending FlightAware
02:26PM -22.6980 -42.8580 239° Southwest 198 228 6,000 -1,020 Descending FlightAware
02:26PM -22.7040 -42.8780 252° West 198 228 5,600 -1,080 Descending FlightAware
02:26PM -22.7090 -42.8970 254° West 192 221 5,300 -600 Descending FlightAware
02:27PM -22.7150 -42.9180 253° West 179 206 5,200 -420 Descending FlightAware
02:27PM -22.7190 -42.9360 256° West 163 188 5,000 -540 Descending FlightAware
02:27PM -22.7220 -42.9460 252° West 161 185 4,900 -1,140 Descending FlightAware
02:28PM -22.7260 -42.9620 255° West 164 189 4,400 -1,200 Descending FlightAware
02:28PM -22.7300 -42.9780 255° West 166 191 4,100 -840 Descending FlightAware
02:29PM -22.7350 -42.9960 253° West 161 185 3,800 -840 Descending FlightAware
02:29PM -22.7390 -43.0120 255° West 158 182 3,500 -900 Descending FlightAware
02:29PM -22.7430 -43.0270 254° West 157 181 3,200 -900 Descending FlightAware
02:30PM -22.7470 -43.0420 254° West 159 183 2,900 -900 Descending FlightAware
02:30PM -22.7510 -43.0600 256° West 163 188 2,600 -840 Descending FlightAware
02:30PM -22.7550 -43.0730 252° West 175 201 2,400 -840 Descending FlightAware
02:31PM -22.7590 -43.0900 256° West 171 197 2,100 -900 Descending FlightAware
02:31PM -22.7630 -43.1050 254° West 163 188 1,800 -900 Descending FlightAware
02:31PM -22.7660 -43.1180 256° West 150 173 1,600 -720 Descending FlightAware
02:31PM -22.7700 -43.1300 250° West 137 158 1,400 -720 Descending FlightAware
02:32PM -22.7740 -43.1450 254° West 135 155 1,100 -720 Descending FlightAware
02:32PM -22.7770 -43.1580 256° West 134 154 900 -720 Descending FlightAware
02:33PM -22.7810 -43.1750 256° West 137 158 500 -780 Descending FlightAware
02:33PM -22.7860 -43.1920 252° West 140 161 200 -780 Descending FlightAware
02:34PM -22.7880 -43.2030 259° West 140 161 -420 Descending FlightAware
02:34PM -22.7930 -43.2170 249° West 140 161  Level FlightAware
02:37PM -22.8089 -43.2436 237° Southwest  Level Estimated
02:38PM -22.8089 -43.2436 137° Southeast  Level Estimated
02:39PM -22.8089 -43.2436 137° Southeast  Level Estimated
02:40PM -22.8089 -43.2436 137° Southeast  Level Estimated